NO1K Weather Reports


Display with metric or nautical units.
time (UTC)temp
F
wind
direction
speed
MPH
gust
MPH
rain 1hr
in
rain 24hr
in
rain mn
in
humidity
%
barometer
mb
20260504081508 43 82 0.0 0.0 0.00 0.00 0.00 87 1010.0
20260504050020 41 195 0.0 0.0 0.00 0.00 0.00 77 1010.2
20260504044534 40 195 0.0 0.0 0.00 0.00 0.00 78 1010.4
20260504043038 40 195 0.0 0.0 0.00 0.00 0.00 78 1010.4
20260504041513 39 195 0.0 0.0 0.00 0.00 0.00 75 1010.4
20260504040024 39 182 0.0 0.0 0.00 0.00 0.00 76 1010.5
20260504034523 38 182 0.0 0.0 0.00 0.00 0.00 77 1010.4
20260504033029 38 182 0.0 0.0 0.00 0.00 0.00 77 1010.4
20260504031518 37 182 0.0 1.0 0.00 0.00 0.00 78 1010.5
20260504030022 37 182 0.0 1.0 0.00 0.00 0.00 78 1010.4
20260504024525 36 105 0.0 0.0 0.00 0.00 0.00 79 1010.6
20260504023027 36 105 0.0 1.0 0.00 0.00 0.00 77 1010.5
20260504021518 36 197 0.0 0.0 0.00 0.00 0.00 78 1010.5
20260504020021 37 197 0.0 0.0 0.00 0.00 0.00 76 1010.8
20260504014504 37 197 0.0 0.0 0.00 0.00 0.00 74 1010.8
20260504013016 38 197 0.0 0.0 0.00 0.00 0.00 72 1010.7
20260504011517 39 279 0.0 0.0 0.00 0.00 0.00 70 1010.6
20260504010022 39 279 0.0 0.0 0.00 0.00 0.00 69 1010.2
20260504004515 41 279 0.0 0.0 0.00 0.00 0.00 66 1009.9
20260504003012 43 279 0.0 0.0 0.00 0.00 0.00 63 1009.8
20260504001520 45 279 0.0 0.0 0.00 0.00 0.00 62 1009.8
20260504000026 46 283 0.0 2.0 0.00 0.00 0.00 55 1009.7
20260503234516 47 227 0.0 0.0 0.00 0.00 0.00 48 1009.5
20260503233011 48 227 0.0 0.0 0.00 0.00 0.00 46 1009.4
20260503231521 49 227 0.0 2.0 0.00 0.00 0.00 45 1009.4
20260503230024 50 216 0.0 1.0 0.00 0.00 0.00 43 1009.3
20260503224509 50 214 0.0 1.0 0.00 0.00 0.00 43 1009.4
20260503223015 50 216 0.0 2.0 0.00 0.00 0.00 45 1009.4
20260503221519 50 233 0.0 1.0 0.00 0.00 0.00 46 1009.4
20260503220026 50 187 0.0 1.0 0.00 0.00 0.00 45 1009.3
20260503214532 50 29 1.0 3.0 0.00 0.00 0.00 43 1009.1
20260503213016 50 227 0.0 2.0 0.00 0.00 0.00 45 1009.2
20260503211524 50 220 0.0 2.0 0.00 0.00 0.00 44 1009.2
20260503210029 50 173 0.0 4.0 0.00 0.00 0.00 43 1009.2
20260503204512 50 204 0.0 4.0 0.00 0.00 0.00 45 1009.3
20260503203016 49 191 0.0 3.0 0.00 0.02 0.00 45 1009.4
20260503201521 49 206 0.0 4.0 0.00 0.02 0.00 45 1009.4
20260503200034 50 200 1.0 3.0 0.00 0.02 0.00 45 1009.5
20260503194514 50 197 1.0 7.0 0.00 0.02 0.00 46 1009.7
20260503193023 51 140 1.0 9.0 0.00 0.02 0.00 49 1009.9
20260503191526 49 179 2.0 7.0 0.00 0.02 0.00 45 1010.1
20260503190028 48 207 1.0 5.0 0.00 0.02 0.00 46 1010.2
20260503184517 49 146 2.0 5.0 0.00 0.02 0.00 45 1010.2
20260503183026 48 279 1.0 6.0 0.00 0.02 0.00 46 1010.1
20260503181524 48 54 3.0 5.0 0.00 0.02 0.00 47 1010.3
20260503180042 47 25 1.0 4.0 0.00 0.02 0.00 50 1010.4
20260503174525 47 161 2.0 5.0 0.00 0.02 0.00 48 1010.4
20260503173035 47 53 1.0 6.0 0.00 0.02 0.00 48 1010.3
20260503171505 47 180 2.0 6.0 0.00 0.02 0.00 46 1010.6